Regional Weather Roundup
Issued by NWS Wakefield, VA

Home | Current Version | Previous Version | Graphics & Text | Print | Product List | Glossary On
Versions: 1 2 3 4 5 6 7 8 9 10 11 12 13 14 15 16 17 18 19 20 21 22 23 24 25 26 27
000
ASUS41 KAKQ 281815
RWRAKQ

REGIONAL WEATHER ROUNDUP
NATIONAL WEATHER SERVICE WAKEFIELD VA
200 PM EDT SAT MAY 28 2016

Note: "fair" indicates few or no clouds below 12,000 feet with no
significant weather and/or obstructions to visibility. * = Denotes
station may not report precipitation (e.g., rain,snow,etc.),
thunder or fog.

VAZ042-051-052>054-056-281900-
NORTHERN VIRGINIA

CITY           SKY/WX    TMP DP  RH WIND       PRES   REMARKS
WASH NATIONAL  FAIR      86  69  56 S13       30.14F
DULLES         FAIR      88  67  49 VRB6      30.14S
FORT BELVOIR   FAIR      87  69  53 S7        30.14S
QUANTICO       FAIR      83  71  67 S10       30.16R
FREDERICKSBRG* FAIR      89  64  43 SW9       30.15R
STAFFORD*      FAIR      87  64  45 S10       30.19S
WARRENTON      FAIR      89  62  39 S5        30.15S
CULPEPER*      FAIR      89  67  48 S8        30.15F
MANASSAS*      MOSUNNY   88  64  45 S7        30.14S
LEESBURG*      FAIR      90  70  51 S7G18     30.15S HX  95
WINCHESTER     FAIR      88  66  48 CALM      30.15S
FRONT ROYAL*   FAIR      86  68  54 SE5       30.14S
LURAY*         FAIR      88  63  42 SW5       30.15F
$$

VAZ048-049-060>072-079>083-281900-
CENTRAL AND SOUTH CENTRAL VIRGINIA

CITY           SKY/WX    TMP DP  RH WIND       PRES   REMARKS
RICHMOND       FAIR      83  62  49 S9        30.18S
CHESTERFIELD*  FAIR      84  59  42 S8        30.19F
PETERSBURG*    FAIR      86  62  44 SE5       30.19F
HANOVER        FAIR      86  59  39 CALM      30.19S
TAPPAHANNOCK*  FAIR      87  61  41 S6        30.18S
QUINTON*       FAIR      84  63  50 SE7       30.18S
CHARLOTTSVILLE FAIR      87  64  46 S10       30.16F
GORDONSVILLE*  FAIR      87  66  50 SW8       30.15F
ORANGE*        FAIR      88  63  42 SW6       30.18S
LOUISA*        FAIR      90  70  51 S3        30.16F HX  95
BUMPASS*       FAIR      86  67  52 SW7       30.17S
FARMVILLE*     NOT AVBL
CREWE*         MOCLDY    83  64  51 SE8       30.19F
FORT PICKETT*  NOT AVBL
CHASE CITY*    FAIR      83  57  41 SE3       30.19F
CLARKSVILLE*   FAIR      81  63  54 NE3       30.19F
SOUTH HILL*    FAIR      82  61  49 SE3       30.24F
LAWRENCEVILLE* FAIR      82  60  47 SE7       30.19F
EMPORIA*       FAIR      82  57  42 E7        30.20F
$$

VAZ088>098-281900-
SOUTHEAST VIRGINIA

CITY           SKY/WX    TMP DP  RH WIND       PRES   REMARKS
NORFOLK        FAIR      81  67  62 NE13      30.19F
VIRGINIA BEACH FAIR      85  66  53 E16       30.20S
NORFOLK NAVAL  FAIR      81  67  62 E10       30.22S
WEST POINT*    FAIR      83  58  41 S8        30.20F
SALUDA*        FAIR      82  62  50 SE7       30.19S
NEWPORT NEWS   FAIR      84  60  44 CALM      30.20S
LANGLEY AFB    FAIR      80  66  61 E10       30.20S
FORT EUSTIS    FAIR      82  64  54 S5        30.18F
WILLIAMSBURG*  FAIR      88  57  35 SE9       30.20F
HR EXEC AP*    FAIR      86  59  39 E9        30.21S
FRANKLIN*      FAIR      83  58  41 NE8       30.19F
US460-WAKEFLD  FAIR      84  56  38 VRB5      30.19F
$$

VAZ020-022-025-037-045-281900-
WEST CENTRAL AND SOUTHWEST VIRGINIA

CITY           SKY/WX    TMP DP  RH WIND       PRES   REMARKS
STAUNTON*      FAIR      84  63  49 SW8       30.19F
WAYNESBORO*    FAIR      83  60  44 E8        30.20F
HOT SPRINGS VA FAIR      75  54  48 S5        30.30F
LYNCHBURG      FAIR      82  61  48 S7        30.20F
DANVILLE       FAIR      82  60  47 NE3       30.19F
SOUTH BOSTON*  FAIR      83  61  47 SE6       30.18F
MARTINSVILLE   FAIR      80  60  50 SE7       30.21F
ROANOKE        PTSUNNY   84  59  42 CALM      30.20F
BLACKSBURG     FAIR      79  59  49 CALM      30.26F
DUBLIN*        FAIR      82  59  46 N5        30.24F
MARION*        PTSUNNY   80  57  45 E5        30.25F
HILLSVILLE*    FAIR      77  58  51 SE3       30.24F
RICHLANDS*     FAIR      78  65  63 SE3       30.24F
WISE*          CLOUDY    77  50  38 CALM      30.24F
ABINGDON*      FAIR      82  51  33 NW5       30.20F
$$

MDZ021>025-VAZ099-100-281900-
SOUTHERN MARYLAND AND THE DELMARVA PENINSULA

CITY           SKY/WX    TMP DP  RH WIND       PRES   REMARKS
PATUXENT RIVER SUNNY     78  66  66 SE13      30.17F
BAY BRIDGE APT SUNNY     84  66  54 S13       30.15S
LEONARDTOWN    SUNNY     82  63  51 SE8       30.18F
DOVER          SUNNY     89  71  55 S8        30.13F
GEORGETOWN     SUNNY     87  64  46 SW7       30.16F
EASTON         SUNNY     86  72  62 SW9       30.19
CAMBRIDGE      SUNNY     81  64  57 S10       30.17S
SALISBURY      SUNNY     85  63  47 S9        30.17F
OCEAN CITY     SUNNY     73  64  73 S10G22    30.20F
WALLOPS ISLAND FAIR      79  61  53 S15       30.21F
ACCOMACK*      FAIR      82  37  20 S10       30.20F
$$

NCZ012>017-030>032-281900-
NORTH CENTRAL AND EASTERN NORTH CAROLINA

CITY           SKY/WX    TMP DP  RH WIND       PRES   REMARKS
ROANOKE RAPIDS FAIR      82  61  47 S6        30.18F
RALEIGH        MOSUNNY   83  50  31 CALM      30.18F
ELIZABETH CITY SUNNY     82  66  58 E12       30.20F
AHOSKIE*       MOSUNNY   83  61  48 SE9       30.19F
EDENTON*       SUNNY     84  74  72 E8        30.19F
CURRITUCK*     SUNNY     81  66  59 E9G18     30.21S
KILL DEVIL HLS SUNNY     83  66  56 E7        30.20F
MANTEO         NOT AVBL
CAPE HATTERAS  SUNNY     85  69  58 SE12      30.18F
TARBORO*       FAIR      87  61  41 E7        30.19F
GOLDSBORO      MOSUNNY   88  63  42 VRB6      30.13F
WASHINGTON     MOSUNNY   83  67  56 SE5       30.17F
GREENVILLE     MOSUNNY   86  63  45 SE3       30.18F
NEW BERN       PTSUNNY   83  66  56 E10       30.17F
WILMINGTON     PTSUNNY   80  65  59 E15G24    30.14F
$$

VAZ048-281900-
ELSEWHERE

CITY           SKY/WX    TMP DP  RH WIND       PRES   REMARKS
HARRISBURG PA  MOSUNNY   89  69  51 SE5       30.11F
BALTIMORE      MOSUNNY   87  67  51 SE9       30.13F
ANNAPOLIS      SUNNY     81  68  64 S14       30.15F
ANDREWS AFB    FAIR      87  67  51 S12       30.15S
PHILADELPHIA   MOSUNNY   88  65  46 SW13      30.13F
HENDERSON NC   SUNNY     80  56  42 CALM      30.19F
GREENSBORO     PTSUNNY   81  55  40 E12       30.18F
ROCKY MOUNT    MOSUNNY   85  62  46 MISG      30.17F
$$

VAZ100-281900-
MARINE

STATION/POSITION TIME  TEMP    WIND        PRES    WAVE   SWELL
                       AIR SEA DIR/SP/G            HT/PER HT/PER
                 (UTC) (F)     (DEG/KT/KT) (MB)    (FT/S) (FT/S)
BRANDYWINE LGT   1700   66     170/ 16/ 17 1021.8F
CAPE MAY NJ      1700   73 69  160/ 11/ 15 1021.9F
LEWES DE         1700   84 63  150/  5/  9 1021.6F
15NM E FENWICK I 1750   66 62              1022.5F   2/ 8
OCEAN-CITY-INLET 1700   64 59  200/  6/ 10 1023.4R
WACHAPREAGUE VA  1700   75 76  170/  8/ 11 1022.8F
THOMAS POINT MD  1800   74 68  170/ 12/ 13 1022.2F
GOOSES REEF MD   1800   71 68  170/ 16/ 17 1022.2F   2/ 3
COVE POINT MD    1700   68     190/ 13/ 15 1022.5F
SOLOMONS ISLAND  1700   74 65  130/ 15/ 15   N/A
BISHOPS HEAD MD  1700   72 76  150/ 13/ 14 1022.6F
PINEY POINT MD   1730          150/ 10/ 11   N/A
POTOMAC MD       1800   72 70  170/ 14/ 16 1021.0F   2/ 3
CAMBRIDGE MD     1700   81 66  190/  8/ 11 1021.0F
LEWISETTA VA     1700   74 64   90/  7/  8 1021.6F
RAPPAHANNOCK LGT 1700          190/  9/ 10 1023.7F
STINGRAY PT      1700   72 71  160/ 12/ 14 1023.3F   1/ 2
YORK RVR RNG VA  1700   71     130/ 12/ 13 1022.4F
YORKTOWN VA      1700   73 67   80/ 11/ 12 1022.6F
JAMESTOWN VA     1800   80 74  100/  8/ 10   N/A     0
DOMINION TERM VA 1700   74      80/ 10/ 14 1022.9F
KIPTOPEKE VA     1700      69  180/  7/  8   N/A
CHES BAY BRIDGE  1700   70 64   50/ 13/ 14 1022.9F
CAPE HENRY VA    1700   71      90/  9/ 10   N/A
CHESAPEAKE LGHT  1700   69     100/  7/  8 1024.0F
WILLOUBY STN VA  1700   71      80/ 11/ 12 1023.9F
CAPE HENRY BUOY  1712      70                N/A     3/ 8
1ST LANDING BUOY 1800   71 71  100/ 10/ 12 1022.9F   2/ 3
CAPE CHARLES BUO 1726      71                N/A     3/ 8   2/ 8
OFFSHORE WE BUOY 1721      71                N/A     3/ 8   3/ 8
64NM E OF VA BCH 1750   69 64   30/  6/  6 1023.1F   4/ 8   3/ 8
DUCK PIER NC     1700   73 64   80/  7/  8 1022.6F
44100 DUCK FRF   1724      70                N/A     3/ 8
44056 DUCK FRF   1711      68                N/A     3/ 7
OREGON INLET NC  1700   75 73   40/  9/ 10 1022.9F
HATTERAS NC      1700   78 74  100/  7/ 10 1022.0F
DIAMOND SHLS NC  1750   78 78   80/ 12/ 12 1021.6F   6/ 8   5/ 8
CAPE C1F1C2F2C3F3C4F4C5F5C6F6C7F7C8M1C9!



USA.gov is the U.S. government's official web portal to all federal, state and local government web resources and services.